sat.trackr.live / text

‹ back to catalog

ROADS 1

NORAD 64535 · 2025-135H

PAYLOAD ACTIVE UNKNOWN

§ Identity

Operator
Country
US
Launch date
2025-06-23
Launch site
AFWTR
Launch vehicle
Mass (kg)
RCS (m²)

External: N2YO · Heavens-Above · Gunter

§ Orbital elements

Epoch: 2026-05-24T19:16:24.966336Z

Period
94.60 min
Inclination
97.4647°
Eccentricity
0.0003078
Mean motion
15.22164063 rev/d
Perigee alt
497.2 km
Apogee alt
501.4 km
Semi-major
6,877.5 km
B*
2.2934e-4
RAAN
260.0067°
Arg perigee
252.2511°
Mean anomaly
107.8390°
Rev number
5,130

§ Raw data

ROADS 11 64535U 25135H   26144.80306674  .00005192  00000+0  22934-3 0  99992 64535  97.4647 260.0067 0003078 252.2511 107.8390 15.22164063 51306

JSON: /api/v1/satellites/64535 · /tle

For live sub-satellite position, see the globe view (requires WebGL).

§ Visibility from observer

Set your observer location to see the next 7 days of passes ≥ 10°. The values pass through the URL so the page stays shareable.

No JS? Fill the form by hand. The geolocation button needs JavaScript.

§ Radio — SatNOGS DB

ModeDescriptionDownlinkUplink
QPSK Mode S - QPSK 1Msps 2.402 GHz
GFSK Mode U - GFSK9k6 435.400 MHz
FSK AX.100 Mode 5 Mode V - GFSK19k2 - Backup 145.900 MHz
FSK AX.100 Mode 5 Mode U - GFSK4k8 (inactive) 435.400 MHz
FSK AX.100 Mode 5 Mode U/U - GMSK1k2 - Digipeater (inactive) 435.400 MHz 435.400 MHz
FSK AX.100 Mode 5 Mode V/V - GMSK1k2 - Digipeater (inactive) 145.900 MHz 145.900 MHz

6 transmitters · refreshed weekly from db.satnogs.org